Year,Month,Day,Hour,Minute,Value (Times are PST for temperature in C)
2021,04,17,00,00,11.40
2021,04,17,00,01,11.40
2021,04,17,00,02,11.30
2021,04,17,00,03,11.30
2021,04,17,00,04,11.30
2021,04,17,00,05,11.30
2021,04,17,00,06,11.20
2021,04,17,00,07,11.20
2021,04,17,00,08,11.20
2021,04,17,00,09,11.10
2021,04,17,00,10,11.10
2021,04,17,00,11,11.10
2021,04,17,00,12,11.10
2021,04,17,00,13,11.00
2021,04,17,00,14,11.00
2021,04,17,00,15,11.00
2021,04,17,00,16,11.00
2021,04,17,00,17,11.00
2021,04,17,00,18,11.00
2021,04,17,00,19,10.90
2021,04,17,00,20,10.90
2021,04,17,00,21,10.90
2021,04,17,00,22,10.90
2021,04,17,00,23,10.90
2021,04,17,00,24,10.90
2021,04,17,00,25,10.90
2021,04,17,00,26,10.90
2021,04,17,00,27,10.90
2021,04,17,00,28,10.90
2021,04,17,00,29,10.90
2021,04,17,00,30,10.90
2021,04,17,00,31,10.90
2021,04,17,00,32,10.90
2021,04,17,00,33,10.90
2021,04,17,00,34,10.90
2021,04,17,00,35,10.90
2021,04,17,00,36,10.90
2021,04,17,00,37,10.90
2021,04,17,00,38,10.90
2021,04,17,00,39,10.90
2021,04,17,00,40,10.90
2021,04,17,00,41,10.90
2021,04,17,00,42,10.90
2021,04,17,00,43,10.80
2021,04,17,00,44,10.80
2021,04,17,00,45,10.80
2021,04,17,00,46,10.80
2021,04,17,00,47,10.80
2021,04,17,00,48,10.80
2021,04,17,00,49,10.80
2021,04,17,00,50,10.80
2021,04,17,00,51,10.80
2021,04,17,00,52,10.80
2021,04,17,00,53,10.80
2021,04,17,00,54,10.80
2021,04,17,00,55,10.90
2021,04,17,00,56,10.90
2021,04,17,00,57,10.90
2021,04,17,00,58,10.90
2021,04,17,00,59,11.00
2021,04,17,01,00,11.00
2021,04,17,01,01,11.10
2021,04,17,01,02,11.20
2021,04,17,01,03,11.20
2021,04,17,01,04,11.30
2021,04,17,01,05,11.30
2021,04,17,01,06,11.30
2021,04,17,01,07,11.30
2021,04,17,01,08,11.30
2021,04,17,01,09,11.30
2021,04,17,01,10,11.30
2021,04,17,01,11,11.30
2021,04,17,01,12,11.30
2021,04,17,01,13,11.30
2021,04,17,01,14,11.30
2021,04,17,01,15,11.30
2021,04,17,01,16,11.30
2021,04,17,01,17,11.20
2021,04,17,01,18,11.20
2021,04,17,01,19,11.20
2021,04,17,01,20,11.20
2021,04,17,01,21,11.20
2021,04,17,01,22,11.20
2021,04,17,01,23,11.10
2021,04,17,01,24,11.00
2021,04,17,01,25,11.00
2021,04,17,01,26,10.90
2021,04,17,01,27,10.80
2021,04,17,01,28,10.80
2021,04,17,01,29,10.80
2021,04,17,01,30,10.80
2021,04,17,01,31,10.80
2021,04,17,01,32,10.90
2021,04,17,01,33,10.90
2021,04,17,01,34,10.90
2021,04,17,01,35,10.90
2021,04,17,01,36,10.90
2021,04,17,01,37,10.90
2021,04,17,01,38,10.90
2021,04,17,01,39,10.80
2021,04,17,01,40,10.80
2021,04,17,01,41,10.70
2021,04,17,01,42,10.70
2021,04,17,01,43,10.60
2021,04,17,01,44,10.60
2021,04,17,01,45,10.50
2021,04,17,01,46,10.50
2021,04,17,01,47,10.50
2021,04,17,01,48,10.50
2021,04,17,01,49,10.50
2021,04,17,01,50,10.50
2021,04,17,01,51,10.60
2021,04,17,01,52,10.70
2021,04,17,01,53,10.70
2021,04,17,01,54,10.80
2021,04,17,01,55,10.80
2021,04,17,01,56,10.90
2021,04,17,01,57,10.90
2021,04,17,01,58,10.90
2021,04,17,01,59,10.90
2021,04,17,02,00,10.90
2021,04,17,02,01,10.90
2021,04,17,02,02,10.90
2021,04,17,02,03,10.90
2021,04,17,02,04,10.80
2021,04,17,02,05,10.80
2021,04,17,02,06,10.80
2021,04,17,02,07,10.70
2021,04,17,02,08,10.60
2021,04,17,02,09,10.60
2021,04,17,02,10,10.50
2021,04,17,02,11,10.40
2021,04,17,02,12,10.30
2021,04,17,02,13,10.20
2021,04,17,02,14,10.20
2021,04,17,02,15,10.10
2021,04,17,02,16,10.00
2021,04,17,02,17,10.00
2021,04,17,02,18,9.90
2021,04,17,02,19,9.80
2021,04,17,02,20,9.80
2021,04,17,02,21,9.70
2021,04,17,02,22,9.70
2021,04,17,02,23,9.70
2021,04,17,02,24,9.70
2021,04,17,02,25,9.70
2021,04,17,02,26,9.70
2021,04,17,02,27,9.70
2021,04,17,02,28,9.70
2021,04,17,02,29,9.70
2021,04,17,02,30,9.80
2021,04,17,02,31,9.80
2021,04,17,02,32,9.90
2021,04,17,02,33,10.00
2021,04,17,02,34,10.10
2021,04,17,02,35,10.10
2021,04,17,02,36,10.20
2021,04,17,02,37,10.20
2021,04,17,02,38,10.20
2021,04,17,02,39,10.20
2021,04,17,02,40,10.20
2021,04,17,02,41,10.20
2021,04,17,02,42,10.20
2021,04,17,02,43,10.20
2021,04,17,02,44,10.20
2021,04,17,02,45,10.20
2021,04,17,02,46,10.20
2021,04,17,02,47,10.30
2021,04,17,02,48,10.30
2021,04,17,02,49,10.30
2021,04,17,02,50,10.30
2021,04,17,02,51,10.30
2021,04,17,02,52,10.40
2021,04,17,02,53,10.40
2021,04,17,02,54,10.30
2021,04,17,02,55,10.30
2021,04,17,02,56,10.30
2021,04,17,02,57,10.30
2021,04,17,02,58,10.20
2021,04,17,02,59,10.20
2021,04,17,03,00,10.10
2021,04,17,03,01,10.10
2021,04,17,03,02,10.10
2021,04,17,03,03,10.10
2021,04,17,03,04,10.10
2021,04,17,03,05,10.10
2021,04,17,03,06,10.10
2021,04,17,03,07,10.10
2021,04,17,03,08,10.10
2021,04,17,03,09,10.20
2021,04,17,03,10,10.20
2021,04,17,03,11,10.20
2021,04,17,03,12,10.20
2021,04,17,03,13,10.20
2021,04,17,03,14,10.30
2021,04,17,03,15,10.30
2021,04,17,03,16,10.30
2021,04,17,03,17,10.30
2021,04,17,03,18,10.20
2021,04,17,03,19,10.20
2021,04,17,03,20,10.10
2021,04,17,03,21,10.10
2021,04,17,03,22,10.00
2021,04,17,03,23,10.00
2021,04,17,03,24,9.90
2021,04,17,03,25,9.80
2021,04,17,03,26,9.80
2021,04,17,03,27,9.80
2021,04,17,03,28,9.70
2021,04,17,03,29,9.70
2021,04,17,03,30,9.70
2021,04,17,03,31,9.60
2021,04,17,03,32,9.60
2021,04,17,03,33,9.60
2021,04,17,03,34,9.50
2021,04,17,03,35,9.50
2021,04,17,03,36,9.40
2021,04,17,03,37,9.40
2021,04,17,03,38,9.30
2021,04,17,03,39,9.30
2021,04,17,03,40,9.30
2021,04,17,03,41,9.20
2021,04,17,03,42,9.20
2021,04,17,03,43,9.20
2021,04,17,03,44,9.20
2021,04,17,03,45,9.20
2021,04,17,03,46,9.20
2021,04,17,03,47,9.20
2021,04,17,03,48,9.20
2021,04,17,03,49,9.20
2021,04,17,03,50,9.20
2021,04,17,03,51,9.20
2021,04,17,03,52,9.20
2021,04,17,03,53,9.20
2021,04,17,03,54,9.20
2021,04,17,03,55,9.20
2021,04,17,03,56,9.20
2021,04,17,03,57,9.20
2021,04,17,03,58,9.10
2021,04,17,03,59,9.10
2021,04,17,04,00,9.00
2021,04,17,04,01,9.00
2021,04,17,04,02,9.00
2021,04,17,04,03,8.90
2021,04,17,04,04,8.90
2021,04,17,04,05,8.90
2021,04,17,04,06,8.90
2021,04,17,04,07,8.90
2021,04,17,04,08,9.00
2021,04,17,04,09,9.00
2021,04,17,04,10,9.10
2021,04,17,04,11,9.10
2021,04,17,04,12,9.10
2021,04,17,04,13,9.20
2021,04,17,04,14,9.20
2021,04,17,04,15,9.20
2021,04,17,04,16,9.20
2021,04,17,04,17,9.20
2021,04,17,04,18,9.20
2021,04,17,04,19,9.20
2021,04,17,04,20,9.30
2021,04,17,04,21,9.30
2021,04,17,04,22,9.30
2021,04,17,04,23,9.30
2021,04,17,04,24,9.40
2021,04,17,04,25,9.40
2021,04,17,04,26,9.50
2021,04,17,04,27,9.60
2021,04,17,04,28,9.60
2021,04,17,04,29,9.60
2021,04,17,04,30,9.70
2021,04,17,04,31,9.70
2021,04,17,04,32,9.80
2021,04,17,04,33,9.80
2021,04,17,04,34,9.80
2021,04,17,04,35,9.80
2021,04,17,04,36,9.80
2021,04,17,04,37,9.80
2021,04,17,04,38,9.80
2021,04,17,04,39,9.90
2021,04,17,04,40,9.90
2021,04,17,04,41,9.90
2021,04,17,04,42,9.90
2021,04,17,04,43,9.90
2021,04,17,04,44,9.90
2021,04,17,04,45,9.90
2021,04,17,04,46,9.90
2021,04,17,04,47,10.00
2021,04,17,04,48,10.00
2021,04,17,04,49,10.00
2021,04,17,04,50,10.00
2021,04,17,04,51,10.10
2021,04,17,04,52,10.10
2021,04,17,04,53,10.10
2021,04,17,04,54,10.10
2021,04,17,04,55,10.10
2021,04,17,04,56,10.10
2021,04,17,04,57,10.10
2021,04,17,04,58,10.20
2021,04,17,04,59,10.20
2021,04,17,05,00,10.20
2021,04,17,05,01,10.20
2021,04,17,05,02,10.20
2021,04,17,05,03,10.20
2021,04,17,05,04,10.20
2021,04,17,05,05,10.20
2021,04,17,05,06,10.20
2021,04,17,05,07,10.20
2021,04,17,05,08,10.20
2021,04,17,05,09,10.20
2021,04,17,05,10,10.20
2021,04,17,05,11,10.20
2021,04,17,05,12,10.20
2021,04,17,05,13,10.20
2021,04,17,05,14,10.20
2021,04,17,05,15,10.20
2021,04,17,05,16,10.20
2021,04,17,05,17,10.20
2021,04,17,05,18,10.20
2021,04,17,05,19,10.20
2021,04,17,05,20,10.20
2021,04,17,05,21,10.20
2021,04,17,05,22,10.10
2021,04,17,05,23,10.10
2021,04,17,05,24,10.10
2021,04,17,05,25,10.10
2021,04,17,05,26,10.10
2021,04,17,05,27,10.10
2021,04,17,05,28,10.10
2021,04,17,05,29,10.10
2021,04,17,05,30,10.10
2021,04,17,05,31,10.10
2021,04,17,05,32,10.10
2021,04,17,05,33,10.10
2021,04,17,05,34,10.10
2021,04,17,05,35,10.10
2021,04,17,05,36,10.00
2021,04,17,05,37,10.10
2021,04,17,05,38,10.10
2021,04,17,05,39,10.10
2021,04,17,05,40,10.10
2021,04,17,05,41,10.10
2021,04,17,05,42,10.10
2021,04,17,05,43,10.10
2021,04,17,05,44,10.00
2021,04,17,05,45,10.00
2021,04,17,05,46,10.00
2021,04,17,05,47,10.00
2021,04,17,05,48,10.00
2021,04,17,05,49,9.90
2021,04,17,05,50,9.90
2021,04,17,05,51,9.90
2021,04,17,05,52,9.90
2021,04,17,05,53,9.90
2021,04,17,05,54,9.90
2021,04,17,05,55,9.80
2021,04,17,05,56,9.80
2021,04,17,05,57,9.80
2021,04,17,05,58,9.80
2021,04,17,05,59,9.70
2021,04,17,06,00,9.70
2021,04,17,06,01,9.70
2021,04,17,06,02,9.70
2021,04,17,06,03,9.70
2021,04,17,06,04,9.70
2021,04,17,06,05,9.70
2021,04,17,06,06,9.70
2021,04,17,06,07,9.70
2021,04,17,06,08,9.60
2021,04,17,06,09,9.60
2021,04,17,06,10,9.60
2021,04,17,06,11,9.60
2021,04,17,06,12,9.60
2021,04,17,06,13,9.50
2021,04,17,06,14,9.50
2021,04,17,06,15,9.50
2021,04,17,06,16,9.50
2021,04,17,06,17,9.50
2021,04,17,06,18,9.60
2021,04,17,06,19,9.60
2021,04,17,06,20,9.60
2021,04,17,06,21,9.60
2021,04,17,06,22,9.60
2021,04,17,06,23,9.70
2021,04,17,06,24,9.70
2021,04,17,06,25,9.70
2021,04,17,06,26,9.70
2021,04,17,06,27,9.70
2021,04,17,06,28,9.70
2021,04,17,06,29,9.70
2021,04,17,06,30,9.70
2021,04,17,06,31,9.70
2021,04,17,06,32,9.70
2021,04,17,06,33,9.70
2021,04,17,06,34,9.70
2021,04,17,06,35,9.70
2021,04,17,06,36,9.70
2021,04,17,06,37,9.70
2021,04,17,06,38,9.70
2021,04,17,06,39,9.70
2021,04,17,06,40,9.60
2021,04,17,06,41,9.60
2021,04,17,06,42,9.60
2021,04,17,06,43,9.60
2021,04,17,06,44,9.60
2021,04,17,06,45,9.60
2021,04,17,06,46,9.60
2021,04,17,06,47,9.60
2021,04,17,06,48,9.50
2021,04,17,06,49,9.50
2021,04,17,06,50,9.40
2021,04,17,06,51,9.40
2021,04,17,06,52,9.40
2021,04,17,06,53,9.40
2021,04,17,06,54,9.40
2021,04,17,06,55,9.30
2021,04,17,06,56,9.30
2021,04,17,06,57,9.30
2021,04,17,06,58,9.30
2021,04,17,06,59,9.30
2021,04,17,07,00,9.40
2021,04,17,07,01,9.40
2021,04,17,07,02,9.40
2021,04,17,07,03,9.40
2021,04,17,07,04,9.40
2021,04,17,07,05,9.40
2021,04,17,07,06,9.40
2021,04,17,07,07,9.50
2021,04,17,07,08,9.50
2021,04,17,07,09,9.60
2021,04,17,07,10,9.60
2021,04,17,07,11,9.60
2021,04,17,07,12,9.60
2021,04,17,07,13,9.70
2021,04,17,07,14,9.70
2021,04,17,07,15,9.80
2021,04,17,07,16,9.80
2021,04,17,07,17,9.90
2021,04,17,07,18,9.90
2021,04,17,07,19,10.00
2021,04,17,07,20,10.00
2021,04,17,07,21,10.10
2021,04,17,07,22,10.10
2021,04,17,07,23,10.20
2021,04,17,07,24,10.30
2021,04,17,07,25,10.40
2021,04,17,07,26,10.50
2021,04,17,07,27,10.60
2021,04,17,07,28,10.70
2021,04,17,07,29,10.80
2021,04,17,07,30,10.90
2021,04,17,07,31,11.10
2021,04,17,07,32,11.10
2021,04,17,07,33,11.20
2021,04,17,07,34,11.30
2021,04,17,07,35,11.40
2021,04,17,07,36,11.50
2021,04,17,07,37,11.60
2021,04,17,07,38,11.70
2021,04,17,07,39,11.80
2021,04,17,07,40,11.90
2021,04,17,07,41,12.00
2021,04,17,07,42,12.10
2021,04,17,07,43,12.20
2021,04,17,07,44,12.30
2021,04,17,07,45,12.30
2021,04,17,07,46,12.40
2021,04,17,07,47,12.50
2021,04,17,07,48,12.60
2021,04,17,07,49,12.70
2021,04,17,07,50,12.80
2021,04,17,07,51,12.90
2021,04,17,07,52,12.90
2021,04,17,07,53,13.00
2021,04,17,07,54,13.00
2021,04,17,07,55,13.10
2021,04,17,07,56,13.10
2021,04,17,07,57,13.10
2021,04,17,07,58,13.10
2021,04,17,07,59,13.20
2021,04,17,08,00,13.20
2021,04,17,08,01,13.20
2021,04,17,08,02,13.20
2021,04,17,08,03,13.20
2021,04,17,08,04,13.30
2021,04,17,08,05,13.30
2021,04,17,08,06,13.40
2021,04,17,08,07,13.60
2021,04,17,08,08,13.70
2021,04,17,08,09,13.80
2021,04,17,08,10,13.90
2021,04,17,08,11,14.10
2021,04,17,08,12,14.30
2021,04,17,08,13,14.40
2021,04,17,08,14,14.60
2021,04,17,08,15,14.80
2021,04,17,08,16,15.00
2021,04,17,08,17,15.00
2021,04,17,08,18,15.20
2021,04,17,08,19,15.30
2021,04,17,08,20,15.50
2021,04,17,08,21,15.60
2021,04,17,08,22,15.60
2021,04,17,08,23,15.70
2021,04,17,08,24,15.80
2021,04,17,08,25,15.80
2021,04,17,08,26,15.80
2021,04,17,08,27,15.90
2021,04,17,08,28,15.90
2021,04,17,08,29,16.00
2021,04,17,08,30,16.10
2021,04,17,08,31,16.20
2021,04,17,08,32,16.20
2021,04,17,08,33,16.30
2021,04,17,08,34,16.30
2021,04,17,08,35,16.40
2021,04,17,08,36,16.40
2021,04,17,08,37,16.50
2021,04,17,08,38,16.60
2021,04,17,08,39,16.60
2021,04,17,08,40,16.70
2021,04,17,08,41,16.80
2021,04,17,08,42,16.90
2021,04,17,08,43,16.90
2021,04,17,08,44,17.00
2021,04,17,08,45,17.10
2021,04,17,08,46,17.10
2021,04,17,08,47,17.10
2021,04,17,08,48,17.10
2021,04,17,08,49,17.10
2021,04,17,08,50,17.20
2021,04,17,08,51,17.20
2021,04,17,08,52,17.30
2021,04,17,08,53,17.30
2021,04,17,08,54,17.40
2021,04,17,08,55,17.40
2021,04,17,08,56,17.40
2021,04,17,08,57,17.40
2021,04,17,08,58,17.50
2021,04,17,08,59,17.50
2021,04,17,09,00,17.40
2021,04,17,09,01,17.40
2021,04,17,09,02,17.40
2021,04,17,09,03,17.40
2021,04,17,09,04,17.30
2021,04,17,09,05,17.30
2021,04,17,09,06,17.30
2021,04,17,09,07,17.20
2021,04,17,09,08,17.20
2021,04,17,09,09,17.20
2021,04,17,09,10,17.20
2021,04,17,09,11,17.20
2021,04,17,09,12,17.20
2021,04,17,09,13,17.30
2021,04,17,09,14,17.30
2021,04,17,09,15,17.30
2021,04,17,09,16,17.30
2021,04,17,09,17,17.30
2021,04,17,09,18,17.30
2021,04,17,09,19,17.30
2021,04,17,09,20,17.20
2021,04,17,09,21,17.10
2021,04,17,09,22,17.00
2021,04,17,09,23,16.90
2021,04,17,09,24,16.90
2021,04,17,09,25,16.80
2021,04,17,09,26,16.70
2021,04,17,09,27,16.70
2021,04,17,09,28,16.60
2021,04,17,09,29,16.60
2021,04,17,09,30,16.60
2021,04,17,09,31,16.60
2021,04,17,09,32,16.60
2021,04,17,09,33,16.50
2021,04,17,09,34,16.50
2021,04,17,09,35,16.50
2021,04,17,09,36,16.40
2021,04,17,09,37,16.40
2021,04,17,09,38,16.40
2021,04,17,09,39,16.40
2021,04,17,09,40,16.30
2021,04,17,09,41,16.30
2021,04,17,09,42,16.30
2021,04,17,09,43,16.20
2021,04,17,09,44,16.20
2021,04,17,09,45,16.10
2021,04,17,09,46,16.00
2021,04,17,09,47,15.90
2021,04,17,09,48,15.90
2021,04,17,09,49,15.80
2021,04,17,09,50,15.80
2021,04,17,09,51,15.80
2021,04,17,09,52,15.80
2021,04,17,09,53,15.80
2021,04,17,09,54,15.80
2021,04,17,09,55,15.80
2021,04,17,09,56,15.80
2021,04,17,09,57,15.80
2021,04,17,09,58,15.80
2021,04,17,09,59,15.80
2021,04,17,10,00,15.80
2021,04,17,10,01,15.80
2021,04,17,10,02,15.80
2021,04,17,10,03,15.70
2021,04,17,10,04,15.70
2021,04,17,10,05,15.60
2021,04,17,10,06,15.60
2021,04,17,10,07,15.60
2021,04,17,10,08,15.60
2021,04,17,10,09,15.60
2021,04,17,10,10,15.60
2021,04,17,10,11,15.60
2021,04,17,10,12,15.60
2021,04,17,10,13,15.60
2021,04,17,10,14,15.70
2021,04,17,10,15,15.70
2021,04,17,10,16,15.70
2021,04,17,10,17,15.70
2021,04,17,10,18,15.70
2021,04,17,10,19,15.70
2021,04,17,10,20,15.70
2021,04,17,10,21,15.70
2021,04,17,10,22,15.70
2021,04,17,10,23,15.70
2021,04,17,10,24,15.70
2021,04,17,10,25,15.60
2021,04,17,10,26,15.50
2021,04,17,10,27,15.50
2021,04,17,10,28,15.40
2021,04,17,10,29,15.40
2021,04,17,10,30,15.40
2021,04,17,10,31,15.40
2021,04,17,10,32,15.40
2021,04,17,10,33,15.50
2021,04,17,10,34,15.50
2021,04,17,10,35,15.50
2021,04,17,10,36,15.50
2021,04,17,10,37,15.40
2021,04,17,10,38,15.40
2021,04,17,10,39,15.40
2021,04,17,10,40,15.40
2021,04,17,10,41,15.40
2021,04,17,10,42,15.40
2021,04,17,10,43,15.30
2021,04,17,10,44,15.30
2021,04,17,10,45,15.30
2021,04,17,10,46,15.30
2021,04,17,10,47,15.20
2021,04,17,10,48,15.20
2021,04,17,10,49,15.30
2021,04,17,10,50,15.30
2021,04,17,10,51,15.30
2021,04,17,10,52,15.20
2021,04,17,10,53,15.20
2021,04,17,10,54,15.20
2021,04,17,10,55,15.20
2021,04,17,10,56,15.30
2021,04,17,10,57,15.30
2021,04,17,10,58,15.30
2021,04,17,10,59,15.30
2021,04,17,11,00,15.40
2021,04,17,11,01,15.40
2021,04,17,11,02,15.40
2021,04,17,11,03,15.40
2021,04,17,11,04,15.40
2021,04,17,11,05,15.50
2021,04,17,11,06,15.60
2021,04,17,11,07,15.60
2021,04,17,11,08,15.70
2021,04,17,11,09,15.80
2021,04,17,11,10,15.80
2021,04,17,11,11,15.80
2021,04,17,11,12,15.80
2021,04,17,11,13,15.80
2021,04,17,11,14,15.70
2021,04,17,11,15,15.70
2021,04,17,11,16,15.70
2021,04,17,11,17,15.80
2021,04,17,11,18,15.90
2021,04,17,11,19,15.90
2021,04,17,11,20,16.00
2021,04,17,11,21,16.00
2021,04,17,11,22,16.10
2021,04,17,11,23,16.20
2021,04,17,11,24,16.30
2021,04,17,11,25,16.30
2021,04,17,11,26,16.40
2021,04,17,11,27,16.40
2021,04,17,11,28,16.50
2021,04,17,11,29,16.50
2021,04,17,11,30,16.50
2021,04,17,11,31,16.50
2021,04,17,11,32,16.50
2021,04,17,11,33,16.60
2021,04,17,11,34,16.60
2021,04,17,11,35,16.60
2021,04,17,11,36,16.60
2021,04,17,11,37,16.60
2021,04,17,11,38,16.60
2021,04,17,11,39,16.50
2021,04,17,11,40,16.50
2021,04,17,11,41,16.50
2021,04,17,11,42,16.60
2021,04,17,11,43,16.60
2021,04,17,11,44,16.60
2021,04,17,11,45,16.70
2021,04,17,11,46,16.70
2021,04,17,11,47,16.70
2021,04,17,11,48,16.80
2021,04,17,11,49,16.90
2021,04,17,11,50,17.00
2021,04,17,11,51,17.10
2021,04,17,11,52,17.10
2021,04,17,11,53,17.20
2021,04,17,11,54,17.30
2021,04,17,11,55,17.30
2021,04,17,11,56,17.30
2021,04,17,11,57,17.30
2021,04,17,11,58,17.20
2021,04,17,11,59,17.20
2021,04,17,12,00,17.20
2021,04,17,12,01,17.20
2021,04,17,12,02,17.20
2021,04,17,12,03,17.20
2021,04,17,12,04,17.20
2021,04,17,12,05,17.20
2021,04,17,12,06,17.20
2021,04,17,12,07,17.10
2021,04,17,12,08,17.10
2021,04,17,12,09,17.10
2021,04,17,12,10,17.10
2021,04,17,12,11,17.10
2021,04,17,12,12,17.20
2021,04,17,12,13,17.20
2021,04,17,12,14,17.30
2021,04,17,12,15,17.30
2021,04,17,12,16,17.30
2021,04,17,12,17,17.30
2021,04,17,12,18,17.30
2021,04,17,12,19,17.40
2021,04,17,12,20,17.40
2021,04,17,12,21,17.50
2021,04,17,12,22,17.60
2021,04,17,12,23,17.70
2021,04,17,12,24,17.70
2021,04,17,12,25,17.80
2021,04,17,12,26,17.90
2021,04,17,12,27,17.90
2021,04,17,12,28,18.00
2021,04,17,12,29,18.10
2021,04,17,12,30,18.10
2021,04,17,12,31,18.10
2021,04,17,12,32,18.10
2021,04,17,12,33,18.10
2021,04,17,12,34,18.10
2021,04,17,12,35,18.10
2021,04,17,12,36,18.10
2021,04,17,12,37,18.10
2021,04,17,12,38,18.20
2021,04,17,12,39,18.10
2021,04,17,12,40,18.20
2021,04,17,12,41,18.20
2021,04,17,12,42,18.20
2021,04,17,12,43,18.30
2021,04,17,12,44,18.30
2021,04,17,12,45,18.30
2021,04,17,12,46,18.30
2021,04,17,12,47,18.30
2021,04,17,12,48,18.30
2021,04,17,12,49,18.40
2021,04,17,12,50,18.40
2021,04,17,12,51,18.40
2021,04,17,12,52,18.50
2021,04,17,12,53,18.50
2021,04,17,12,54,18.60
2021,04,17,12,55,18.60
2021,04,17,12,56,18.60
2021,04,17,12,57,18.60
2021,04,17,12,58,18.60
2021,04,17,12,59,18.70
2021,04,17,13,00,18.70
2021,04,17,13,01,18.80
2021,04,17,13,02,18.90
2021,04,17,13,03,18.90
2021,04,17,13,04,19.00
2021,04,17,13,05,19.00
2021,04,17,13,06,19.00
2021,04,17,13,07,18.90
2021,04,17,13,08,18.90
2021,04,17,13,09,19.00
2021,04,17,13,10,19.00
2021,04,17,13,11,19.10
2021,04,17,13,12,19.10
2021,04,17,13,13,19.10
2021,04,17,13,14,19.10
2021,04,17,13,15,19.10
2021,04,17,13,16,19.10
2021,04,17,13,17,19.10
2021,04,17,13,18,19.20
2021,04,17,13,19,19.20
2021,04,17,13,20,19.30
2021,04,17,13,21,19.30
2021,04,17,13,22,19.40
2021,04,17,13,23,19.50
2021,04,17,13,24,19.60
2021,04,17,13,25,19.70
2021,04,17,13,26,19.70
2021,04,17,13,27,19.80
2021,04,17,13,28,19.80
2021,04,17,13,29,19.90
2021,04,17,13,30,19.90
2021,04,17,13,31,19.90
2021,04,17,13,32,19.90
2021,04,17,13,33,19.90
2021,04,17,13,34,19.90
2021,04,17,13,35,19.90
2021,04,17,13,36,19.80
2021,04,17,13,37,19.80
2021,04,17,13,38,19.80
2021,04,17,13,39,19.80
2021,04,17,13,40,19.80
2021,04,17,13,41,19.80
2021,04,17,13,42,19.90
2021,04,17,13,43,19.90
2021,04,17,13,44,20.00
2021,04,17,13,45,20.10
2021,04,17,13,46,20.10
2021,04,17,13,47,20.20
2021,04,17,13,48,20.30
2021,04,17,13,49,20.30
2021,04,17,13,50,20.40
2021,04,17,13,51,20.50
2021,04,17,13,52,20.60
2021,04,17,13,53,20.60
2021,04,17,13,54,20.70
2021,04,17,13,55,20.70
2021,04,17,13,56,20.70
2021,04,17,13,57,20.70
2021,04,17,13,58,20.70
2021,04,17,13,59,20.80
2021,04,17,14,00,20.80
2021,04,17,14,01,20.90
2021,04,17,14,02,21.00
2021,04,17,14,03,21.10
2021,04,17,14,04,21.10
2021,04,17,14,05,21.10
2021,04,17,14,06,21.00
2021,04,17,14,07,20.90
2021,04,17,14,08,20.90
2021,04,17,14,09,20.80
2021,04,17,14,10,20.80
2021,04,17,14,11,20.80
2021,04,17,14,12,20.80
2021,04,17,14,13,20.80
2021,04,17,14,14,20.80
2021,04,17,14,15,20.70
2021,04,17,14,16,20.70
2021,04,17,14,17,20.80
2021,04,17,14,18,20.80
2021,04,17,14,19,20.80
2021,04,17,14,20,20.70
2021,04,17,14,21,20.70
2021,04,17,14,22,20.80
2021,04,17,14,23,20.80
2021,04,17,14,24,20.80
2021,04,17,14,25,20.90
2021,04,17,14,26,20.90
2021,04,17,14,27,20.80
2021,04,17,14,28,20.80
2021,04,17,14,29,20.80
2021,04,17,14,30,20.90
2021,04,17,14,31,20.90
2021,04,17,14,32,21.00
2021,04,17,14,33,21.00
2021,04,17,14,34,21.10
2021,04,17,14,35,21.10
2021,04,17,14,36,21.10
2021,04,17,14,37,21.10
2021,04,17,14,38,21.20
2021,04,17,14,39,21.20
2021,04,17,14,40,21.20
2021,04,17,14,41,21.30
2021,04,17,14,42,21.30
2021,04,17,14,43,21.30
2021,04,17,14,44,21.20
2021,04,17,14,45,21.20
2021,04,17,14,46,21.10
2021,04,17,14,47,21.10
2021,04,17,14,48,21.20
2021,04,17,14,49,21.20
2021,04,17,14,50,21.20
2021,04,17,14,51,21.30
2021,04,17,14,52,21.40
2021,04,17,14,53,21.40
2021,04,17,14,54,21.40
2021,04,17,14,55,21.40
2021,04,17,14,56,21.50
2021,04,17,14,57,21.50
2021,04,17,14,58,21.40
2021,04,17,14,59,21.40
2021,04,17,15,00,21.30
2021,04,17,15,01,21.40
2021,04,17,15,02,21.50
2021,04,17,15,03,21.60
2021,04,17,15,04,21.60
2021,04,17,15,05,21.60
2021,04,17,15,06,21.60
2021,04,17,15,07,21.70
2021,04,17,15,08,21.60
2021,04,17,15,09,21.60
2021,04,17,15,10,21.50
2021,04,17,15,11,21.40
2021,04,17,15,12,21.30
2021,04,17,15,13,21.30
2021,04,17,15,14,21.30
2021,04,17,15,15,21.40
2021,04,17,15,16,21.40
2021,04,17,15,17,21.40
2021,04,17,15,18,21.40
2021,04,17,15,19,21.40
2021,04,17,15,20,21.50
2021,04,17,15,21,21.50
2021,04,17,15,22,21.60
2021,04,17,15,23,21.70
2021,04,17,15,24,21.70
2021,04,17,15,25,21.80
2021,04,17,15,26,21.80
2021,04,17,15,27,21.80
2021,04,17,15,28,21.80
2021,04,17,15,29,21.80
2021,04,17,15,30,21.80
2021,04,17,15,31,21.70
2021,04,17,15,32,21.70
2021,04,17,15,33,21.70
2021,04,17,15,34,21.70
2021,04,17,15,35,21.70
2021,04,17,15,36,21.80
2021,04,17,15,37,21.80
2021,04,17,15,38,21.80
2021,04,17,15,39,21.70
2021,04,17,15,40,21.70
2021,04,17,15,41,21.70
2021,04,17,15,42,21.80
2021,04,17,15,43,21.80
2021,04,17,15,44,21.80
2021,04,17,15,45,21.80
2021,04,17,15,46,21.90
2021,04,17,15,47,21.90
2021,04,17,15,48,21.90
2021,04,17,15,49,21.90
2021,04,17,15,50,21.90
2021,04,17,15,51,21.90
2021,04,17,15,52,21.90
2021,04,17,15,53,21.80
2021,04,17,15,54,21.80
2021,04,17,15,55,21.70
2021,04,17,15,56,21.70
2021,04,17,15,57,21.70
2021,04,17,15,58,21.70
2021,04,17,15,59,21.60
2021,04,17,16,00,21.50
2021,04,17,16,01,21.50
2021,04,17,16,02,21.40
2021,04,17,16,03,21.30
2021,04,17,16,04,21.30
2021,04,17,16,05,21.20
2021,04,17,16,06,21.20
2021,04,17,16,07,21.30
2021,04,17,16,08,21.30
2021,04,17,16,09,21.40
2021,04,17,16,10,21.50
2021,04,17,16,11,21.60
2021,04,17,16,12,21.70
2021,04,17,16,13,21.70
2021,04,17,16,14,21.80
2021,04,17,16,15,21.80
2021,04,17,16,16,21.90
2021,04,17,16,17,21.90
2021,04,17,16,18,21.90
2021,04,17,16,19,21.90
2021,04,17,16,20,21.90
2021,04,17,16,21,21.90
2021,04,17,16,22,22.00
2021,04,17,16,23,21.90
2021,04,17,16,24,21.90
2021,04,17,16,25,21.90
2021,04,17,16,26,22.00
2021,04,17,16,27,22.00
2021,04,17,16,28,22.10
2021,04,17,16,29,22.10
2021,04,17,16,30,22.20
2021,04,17,16,31,22.30
2021,04,17,16,32,22.40
2021,04,17,16,33,22.50
2021,04,17,16,34,22.60
2021,04,17,16,35,22.60
2021,04,17,16,36,22.70
2021,04,17,16,37,22.70
2021,04,17,16,38,22.80
2021,04,17,16,39,22.80
2021,04,17,16,40,22.80
2021,04,17,16,41,22.80
2021,04,17,16,42,22.80
2021,04,17,16,43,22.90
2021,04,17,16,44,22.90
2021,04,17,16,45,22.80
2021,04,17,16,46,22.80
2021,04,17,16,47,22.70
2021,04,17,16,48,22.60
2021,04,17,16,49,22.60
2021,04,17,16,50,22.60
2021,04,17,16,51,22.50
2021,04,17,16,52,22.50
2021,04,17,16,53,22.40
2021,04,17,16,54,22.40
2021,04,17,16,55,22.40
2021,04,17,16,56,22.30
2021,04,17,16,57,22.30
2021,04,17,16,58,22.30
2021,04,17,16,59,22.20
2021,04,17,17,00,22.20
2021,04,17,17,01,22.20
2021,04,17,17,02,22.20
2021,04,17,17,03,22.20
2021,04,17,17,04,22.10
2021,04,17,17,05,22.20
2021,04,17,17,06,22.20
2021,04,17,17,07,22.30
2021,04,17,17,08,22.30
2021,04,17,17,09,22.40
2021,04,17,17,10,22.40
2021,04,17,17,11,22.50
2021,04,17,17,12,22.60
2021,04,17,17,13,22.70
2021,04,17,17,14,22.80
2021,04,17,17,15,22.90
2021,04,17,17,16,23.00
2021,04,17,17,17,23.00
2021,04,17,17,18,23.10
2021,04,17,17,19,23.10
2021,04,17,17,20,23.10
2021,04,17,17,21,23.10
2021,04,17,17,22,23.10
2021,04,17,17,23,23.10
2021,04,17,17,24,23.10
2021,04,17,17,25,23.10
2021,04,17,17,26,23.10
2021,04,17,17,27,23.10